FW7305 Weather Reports


time (UTC)temp
C
wind
direction
speed
KPH
gust
KPH
rain 1hr
cm
rain 24hr
cm
rain mn
cm
humidity
%
barometer
mb
20260510223720 13 263 8.0 20.9 0.00 0.15 0.15 41 1013.1
20260510223216 13 262 8.0 12.9 0.00 0.15 0.15 40 1013.1
20260510222713 13 277 6.4 8.0 0.00 0.15 0.15 43 1013.1
20260510222210 13 290 3.2 4.8 0.00 0.15 0.15 44 1012.9
20260510221705 13 178 3.2 8.0 0.00 0.15 0.15 44 1012.8
20260510221203 13 205 6.4 14.5 0.00 0.15 0.15 43 1012.8
20260510220700 14 254 6.4 9.7 0.00 0.15 0.15 41 1012.6
20260510220159 14 110 1.6 3.2 0.00 0.15 0.15 40 1012.6
20260510215657 13 244 14.5 17.7 0.00 0.15 0.15 38 1012.2
20260510215156 13 240 22.5 29.0 0.00 0.15 0.15 37 1012.4
20260510214652 14 284 16.1 22.5 0.00 0.15 0.15 37 1012.1
20260510214149 14 249 14.5 17.7 0.00 0.15 0.15 37 1012.3
20260510213646 14 254 12.9 17.7 0.00 0.15 0.15 38 1012.2
20260510213142 14 216 9.7 17.7 0.00 0.15 0.15 38 1011.9
20260510212638 15 229 11.3 16.1 0.00 0.15 0.15 36 1011.9
20260510212136 15 278 11.3 12.9 0.00 0.15 0.15 37 1011.7
20260510211632 16 281 12.9 16.1 0.00 0.15 0.15 33 1011.9
20260510211127 16 282 9.7 12.9 0.00 0.15 0.15 34 1011.8
20260510210624 16 332 4.8 8.0 0.00 0.15 0.15 36 1011.6
20260510210119 16 258 9.7 12.9 0.00 0.15 0.15 34 1011.4
20260510205618 16 250 12.9 14.5 0.00 0.15 0.15 33 1011.4
20260510205114 15 204 3.2 4.8 0.00 0.15 0.15 34 1011.4
20260510204611 16 265 22.5 24.1 0.00 0.15 0.15 32 1011.5
20260510204108 15 275 16.1 29.0 0.00 0.15 0.15 33 1011.2
20260510203604 15 288 14.5 17.7 0.00 0.15 0.15 33 1011.3
20260510203101 15 273 17.7 24.1 0.00 0.15 0.15 33 1011.3
20260510202600 16 307 20.9 32.2 0.00 0.15 0.15 32 1011.1
20260510202056 16 268 8.0 11.3 0.00 0.15 0.15 33 1011.3
20260510201554 16 280 20.9 33.8 0.00 0.15 0.15 32 1011.2
20260510201051 16 213 8.0 12.9 0.00 0.15 0.15 34 1010.9
20260510200546 16 282 14.5 17.7 0.00 0.15 0.15 34 1010.9
20260510200045 16 198 8.0 11.3 0.00 0.15 0.15 35 1010.8
20260510195542 16 243 11.3 17.7 0.00 0.15 0.15 34 1010.9
20260510195038 16 254 8.0 11.3 0.00 0.15 0.15 34 1010.8
20260510194533 16 263 24.1 40.2 0.00 0.15 0.15 32 1011.0
20260510194030 16 267 9.7 12.9 0.00 0.15 0.15 35 1010.7
20260510193525 16 347 9.7 12.9 0.00 0.15 0.15 33 1010.9
20260510193021 16 200 1.6 4.8 0.00 0.15 0.15 37 1010.5
20260510192515 17 254 9.7 12.9 0.00 0.15 0.15 34 1010.6
20260510192012 16 12 8.0 11.3 0.00 0.15 0.15 36 1010.6
20260510191508 17 275 8.0 14.5 0.00 0.15 0.15 34 1010.6
20260510191005 16 328 9.7 14.5 0.00 0.15 0.15 34 1010.5
20260510190502 16 176 8.0 11.3 0.00 0.15 0.15 33 1010.8
20260510185959 16 256 17.7 22.5 0.00 0.15 0.15 33 1010.6
20260510185456 16 256 11.3 17.7 0.00 0.15 0.15 31 1010.8
20260510184954 16 257 11.3 17.7 0.00 0.15 0.15 33 1010.7
20260510184451 16 312 8.0 16.1 0.00 0.15 0.15 33 1010.5
20260510183951 16 266 12.9 20.9 0.00 0.15 0.15 33 1010.4
20260510183447 17 259 9.7 17.7 0.00 0.15 0.15 33 1010.5
20260510182947 17 184 4.8 8.0 0.00 0.15 0.15 38 1010.3
20260510182444 16 271 6.4 8.0 0.00 0.15 0.15 37 1010.3
20260510181939 16 305 11.3 14.5 0.00 0.15 0.15 36 1010.2
20260510181438 16 251 11.3 16.1 0.00 0.15 0.15 33 1010.6
20260510180933 16 257 6.4 9.7 0.00 0.15 0.15 36 1010.2
20260510180431 16 250 14.5 22.5 0.00 0.15 0.15 31 1010.3
20260510175928 16 265 16.1 27.4 0.00 0.15 0.15 34 1010.2
20260510175423 16 222 12.9 16.1 0.00 0.15 0.15 32 1010.3
20260510174919 16 222 17.7 22.5 0.00 0.15 0.15 32 1010.1
20260510174418 16 0 11.3 20.9 0.00 0.15 0.15 34 1009.9
20260510173914 16 259 27.4 32.2 0.00 0.15 0.15 29 1010.1
20260510173409 16 279 20.9 25.7 0.00 0.15 0.15 31 1010.1
20260510172906 16 262 20.9 27.4 0.00 0.15 0.15 31 1010.0
20260510172402 15 245 14.5 17.7 0.00 0.15 0.15 30 1009.9
20260510171858 16 272 27.4 33.8 0.00 0.15 0.15 29 1010.0
20260510171356 16 245 22.5 29.0 0.00 0.15 0.15 28 1010.0
20260510170853 16 237 16.1 25.7 0.00 0.15 0.15 31 1009.8
20260510170349 16 226 9.7 14.5 0.00 0.15 0.15 33 1010.1
20260510165844 16 258 12.9 20.9 0.00 0.15 0.15 33 1009.8
20260510165341 16 256 12.9 17.7 0.00 0.15 0.15 29 1009.9
20260510164838 16 250 8.0 12.9 0.00 0.15 0.15 30 1010.1
20260510164336 15 286 20.9 25.7 0.00 0.15 0.15 28 1010.0
20260510163835 16 199 14.5 27.4 0.00 0.15 0.15 29 1010.0
20260510163332 16 256 9.7 12.9 0.00 0.15 0.15 33 1009.8
20260510162826 16 202 11.3 14.5 0.00 0.15 0.15 30 1009.8
20260510162324 16 260 11.3 20.9 0.00 0.15 0.15 32 1009.7
20260510161819 16 264 14.5 24.1 0.00 0.15 0.15 33 1009.8
20260510161315 16 246 12.9 20.9 0.00 0.15 0.15 33 1009.8
20260510160812 15 171 4.8 8.0 0.00 0.15 0.15 36 1009.9
20260510160308 15 281 16.1 20.9 0.00 0.15 0.15 34 1009.8
20260510155803 15 260 19.3 27.4 0.00 0.15 0.15 34 1009.8
20260510155259 15 219 12.9 17.7 0.00 0.15 0.15 35 1009.8
20260510154755 15 164 6.4 11.3 0.00 0.15 0.15 39 1009.6
20260510154252 15 225 17.7 27.4 0.00 0.15 0.15 38 1009.8
20260510153746 15 260 11.3 14.5 0.00 0.15 0.15 41 1009.8
20260510153242 15 187 3.2 3.2 0.00 0.15 0.15 45 1009.7
20260510152734 15 282 14.5 17.7 0.00 0.15 0.15 41 1009.8
20260510152230 15 194 4.8 8.0 0.00 0.15 0.15 42 1009.9
20260510151726 15 29 12.9 20.9 0.00 0.15 0.15 44 1009.6
20260510151226 15 231 14.5 14.5 0.00 0.15 0.15 42 1009.4
20260510150720 15 199 12.9 16.1 0.00 0.15 0.15 41 1009.6
20260510150216 15 242 6.4 8.0 0.00 0.15 0.15 45 1009.6
20260510145713 15 262 14.5 20.9 0.00 0.15 0.15 41 1009.8
20260510145209 15 278 14.5 20.9 0.00 0.15 0.15 43 1009.6
20260510144705 15 261 9.7 11.3 0.00 0.15 0.15 44 1009.4
20260510144202 15 267 8.0 11.3 0.00 0.15 0.15 42 1009.3
20260510143657 14 257 8.0 9.7 0.00 0.15 0.15 42 1009.3
20260510143154 15 259 16.1 24.1 0.00 0.15 0.15 37 1009.3
20260510142650 14 233 12.9 17.7 0.00 0.15 0.15 43 1009.0
20260510142147 14 274 12.9 16.1 0.00 0.15 0.15 44 1009.2
20260510141644 15 258 11.3 12.9 0.00 0.15 0.15 47 1009.1
20260510141142 15 283 9.7 12.9 0.00 0.15 0.15 46 1009.2
20260510140638 15 244 8.0 11.3 0.00 0.15 0.15 49 1009.1
20260510140137 14 219 11.3 14.5 0.00 0.15 0.15 50 1008.9
20260510135632 14 311 11.3 20.9 0.00 0.15 0.15 53 1009.1
20260510135129 14 243 9.7 14.5 0.00 0.15 0.15 55 1009.0
20260510134626 14 307 9.7 11.3 0.00 0.15 0.15 57 1009.1
20260510134123 13 238 4.8 9.7 0.00 0.15 0.15 59 1008.9
20260510133620 13 260 14.5 24.1 0.00 0.15 0.15 58 1008.9
20260510133115 13 266 8.0 11.3 0.00 0.15 0.15 57 1009.1
20260510132612 13 273 9.7 12.9 0.00 0.15 0.15 57 1009.0
20260510132109 13 196 16.1 25.7 0.00 0.15 0.15 56 1008.6
20260510131607 13 246 11.3 14.5 0.00 0.15 0.15 56 1009.0
20260510131104 12 281 11.3 17.7 0.00 0.15 0.15 55 1008.8
20260510130600 12 179 6.4 9.7 0.00 0.15 0.15 57 1008.5
20260510130058 12 191 9.7 12.9 0.00 0.15 0.15 55 1008.7
20260510125554 12 223 8.0 12.9 0.00 0.15 0.15 57 1008.7
20260510125050 12 238 11.3 12.9 0.00 0.15 0.15 58 1008.5
20260510124547 12 247 4.8 8.0 0.00 0.15 0.15 61 1008.8
20260510124044 12 249 12.9 16.1 0.00 0.15 0.15 64 1008.6
20260510123539 12 256 12.9 16.1 0.00 0.15 0.15 66 1008.6
20260510123035 12 227 17.7 20.9 0.00 0.15 0.15 64 1008.4
20260510122531 12 287 12.9 16.1 0.00 0.15 0.15 66 1008.2
20260510122028 12 233 11.3 14.5 0.00 0.15 0.15 64 1008.6
20260510121525 12 222 14.5 17.7 0.00 0.15 0.15 63 1008.5
20260510121022 12 221 12.9 16.1 0.00 0.15 0.15 62 1008.3
20260510120519 12 267 11.3 16.1 0.00 0.15 0.15 59 1008.4
20260510120015 12 237 4.8 9.7 0.00 0.15 0.15 63 1008.2
20260510115512 12 255 17.7 20.9 0.00 0.15 0.15 64 1008.0
20260510115008 12 264 8.0 9.7 0.00 0.15 0.15 71 1008.3
20260510114505 11 202 8.0 11.3 0.00 0.15 0.15 70 1008.3
20260510114001 11 233 3.2 4.8 0.00 0.15 0.15 75 1008.0
20260510113456 12 181 4.8 9.7 0.00 0.15 0.15 76 1008.1
20260510112954 12 220 8.0 12.9 0.00 0.15 0.15 76 1007.9
20260510112451 12 184 8.0 12.9 0.00 0.15 0.15 79 1007.9
20260510111947 11 221 4.8 8.0 0.00 0.15 0.15 78 1007.9
20260510111443 11 248 8.0 11.3 0.00 0.15 0.15 81 1007.8
20260510110940 11 233 4.8 4.8 0.00 0.15 0.15 82 1007.6
20260510110436 11 194 12.9 16.1 0.00 0.15 0.15 79 1007.4
20260510105932 11 207 8.0 11.3 0.00 0.15 0.15 79 1007.4
20260510105427 11 197 3.2 4.8 0.00 0.15 0.15 78 1007.5
20260510104922 11 157 6.4 9.7 0.00 0.15 0.15 76 1007.5
20260510104419 11 237 12.9 17.7 0.00 0.15 0.15 76 1007.1
20260510103915 11 226 14.5 17.7 0.00 0.15 0.15 79 1007.4
20260510103413 11 290 12.9 17.7 0.00 0.15 0.15 79 1007.4
20260510102908 12 221 9.7 11.3 0.00 0.15 0.15 78 1007.3
20260510102404 12 252 6.4 9.7 0.00 0.15 0.15 78 1007.3
20260510101902 11 242 6.4 9.7 0.00 0.15 0.15 79 1007.2
20260510101400 11 234 6.4 11.3 0.00 0.15 0.15 80 1006.9
20260510100856 11 271 8.0 9.7 0.00 0.15 0.15 80 1006.9
20260510100354 11 198 11.3 16.1 0.00 0.15 0.15 80 1006.9
20260510095850 11 210 6.4 11.3 0.00 0.15 0.15 82 1006.8
20260510095345 11 211 8.0 11.3 0.00 0.15 0.15 83 1006.6
20260510094844 10 248 8.0 11.3 0.00 0.15 0.15 84 1006.6
20260510094334 10 213 8.0 14.5 0.00 0.15 0.15 84 1006.6
20260510093831 10 179 11.3 12.9 0.00 0.15 0.15 84 1006.5
20260510093326 10 233 3.2 4.8 0.00 0.15 0.15 84 1006.3
20260510092823 10 162 8.0 16.1 0.00 0.15 0.15 85 1006.2
20260510092319 10 256 9.7 14.5 0.00 0.15 0.15 87 1006.4
20260510091815 10 187 6.4 9.7 0.00 0.15 0.15 87 1006.5
20260510091313 10 165 6.4 11.3 0.00 0.15 0.15 88 1006.3
20260510090809 10 222 4.8 8.0 0.00 0.15 0.15 88 1006.3
20260510090305 10 218 4.8 9.7 0.00 0.15 0.15 87 1006.2
20260510085801 10 234 8.0 11.3 0.00 0.15 0.15 87 1006.1
20260510085255 10 171 8.0 12.9 0.00 0.15 0.15 88 1006.2
20260510084751 10 191 8.0 9.7 0.00 0.15 0.15 88 1006.0
20260510084248 10 182 6.4 9.7 0.00 0.15 0.15 88 1006.1
20260510083745 10 225 8.0 11.3 0.00 0.15 0.15 88 1006.1
20260510083242 10 222 8.0 11.3 0.00 0.15 0.15 88 1006.0
20260510082738 10 201 9.7 14.5 0.00 0.15 0.15 87 1005.9
20260510082234 10 220 6.4 11.3 0.00 0.15 0.15 87 1006.0
20260510081733 10 189 6.4 9.7 0.00 0.15 0.15 87 1006.0
20260510081230 10 203 11.3 14.5 0.00 0.15 0.15 87 1006.2
20260510080725 11 214 12.9 16.1 0.00 0.15 0.15 87 1005.9
20260510080221 11 225 8.0 9.7 0.00 0.15 0.15 87 1006.0
20260510075718 11 151 4.8 8.0 0.00 0.15 0.15 87 1005.8
20260510075216 11 217 6.4 8.0 0.00 0.15 0.15 87 1005.7
20260510074712 11 256 6.4 9.7 0.00 0.15 0.15 87 1006.1
20260510074209 11 223 11.3 17.7 0.00 0.15 0.15 88 1005.7
20260510073705 10 162 11.3 16.1 0.00 0.15 0.15 88 1006.0
20260510073201 10 234 6.4 9.7 0.00 0.15 0.15 88 1005.7
20260510072657 10 230 9.7 11.3 0.00 0.15 0.15 89 1006.0
20260510072154 10 193 11.3 12.9 0.00 0.15 0.15 88 1005.6
20260510071650 10 240 12.9 20.9 0.00 0.15 0.15 88 1005.6
20260510071148 10 198 8.0 11.3 0.00 0.15 0.15 89 1005.8
20260510070645 10 207 8.0 11.3 0.13 0.15 0.15 88 1005.7
20260510070142 10 185 14.5 24.1 0.13 0.15 0.15 88 1005.7
20260510065637 10 226 4.8 8.0 0.00 0.13 0.13 89 1005.6
20260510065133 10 236 8.0 12.9 0.00 0.13 0.13 89 1005.6
20260510064630 10 204 8.0 9.7 0.00 0.13 0.13 89 1005.4
20260510064127 10 170 11.3 12.9 0.00 0.13 0.13 89 1005.5
20260510063624 10 241 11.3 14.5 0.18 0.13 0.13 88 1005.7
20260510063121 10 155 12.9 20.9 0.30 0.13 0.13 88 1005.6
20260510062616 10 182 9.7 14.5 0.13 0.10 0.10 87 1006.0
20260510062113 10 191 8.0 9.7 0.00 0.08 0.08 87 1006.0
20260510061608 10 192 4.8 8.0 0.18 0.08 0.08 86 1006.2
20260510061106 10 199 6.4 9.7 0.18 0.08 0.08 86 1006.1
20260510060602 10 203 9.7 12.9 0.13 0.05 0.05 85 1006.1
20260510060059 10 226 9.7 12.9 0.30 0.05 0.05 83 1005.9
20260510055554 10 209 14.5 20.9 0.18 0.03 0.03 81 1005.9
20260510055053 11 199 20.9 25.7 0.00 0.00 0.00 80 1006.1
20260510054549 11 202 11.3 14.5 0.00 0.00 0.00 76 1006.2
20260510054043 11 208 16.1 17.7 0.00 0.00 0.00 74 1005.8
20260510053538 11 219 11.3 16.1 0.00 0.00 0.00 74 1006.1
20260510053035 11 239 11.3 17.7 0.00 0.00 0.00 74 1005.9
20260510052531 11 173 14.5 20.9 0.00 0.00 0.00 74 1005.7
20260510052027 11 179 16.1 24.1 0.00 0.00 0.00 74 1005.8
20260510051523 11 185 8.0 11.3 0.00 0.00 0.00 73 1005.8
20260510051020 11 170 9.7 12.9 0.00 0.00 0.00 74 1005.8
20260510050517 11 192 14.5 20.9 0.00 0.00 0.00 73 1005.7
20260510050014 11 159 11.3 12.9 0.00 0.00 0.00 73 1005.8
20260510045512 11 150 6.4 11.3 0.00 0.00 0.00 74 1005.8
20260510045007 11 202 9.7 11.3 0.00 0.00 0.00 74 1005.6
20260510044504 11 179 4.8 9.7 0.00 0.00 0.00 74 1005.5
20260510044002 11 177 4.8 8.0 0.00 0.00 0.00 74 1005.7
20260510043457 10 149 6.4 8.0 0.00 0.00 0.00 74 1005.7
20260510042956 10 162 6.4 9.7 0.00 0.00 0.00 75 1005.6
20260510042452 10 183 9.7 12.9 0.00 0.00 0.00 76 1005.6
20260510041947 10 157 4.8 4.8 0.00 0.00 0.00 76 1005.8
20260510041444 10 191 14.5 16.1 0.00 0.00 0.00 76 1005.7
20260510040942 10 149 6.4 9.7 0.00 0.00 0.00 76 1005.8
20260510040438 10 162 6.4 8.0 0.00 0.00 0.00 75 1005.6
20260510035933 10 156 8.0 12.9 0.00 0.00 0.00 75 1005.8
20260510035430 10 168 8.0 9.7 0.00 0.00 0.00 74 1006.0
20260510034930 10 173 8.0 11.3 0.00 0.00 0.00 73 1006.3
20260510034429 10 205 11.3 12.9 0.00 0.00 0.00 73 1006.2
20260510033925 10 164 8.0 11.3 0.00 0.00 0.00 73 1006.1
20260510033416 10 150 17.7 20.9 0.00 0.00 0.00 72 1006.3
20260510032913 10 169 19.3 22.5 0.00 0.00 0.00 72 1006.3
20260510032410 10 167 17.7 25.7 0.00 0.00 0.00 72 1006.1
20260510031905 10 196 8.0 9.7 0.00 0.00 0.00 73 1006.1
20260510031401 10 183 12.9 16.1 0.00 0.00 0.00 74 1006.4
20260510030901 10 155 3.2 3.2 0.00 0.00 0.00 74 1006.3
20260510030357 10 177 4.8 4.8 0.00 0.00 0.00 74 1006.7
20260510025855 10 154 6.4 8.0 0.00 0.00 0.00 74 1006.8
20260510025352 10 150 4.8 4.8 0.00 0.00 0.00 74 1006.5
20260510024849 10 164 6.4 11.3 0.00 0.00 0.00 73 1006.7
20260510024346 10 185 8.0 9.7 0.00 0.00 0.00 72 1006.8
20260510023842 10 155 8.0 9.7 0.00 0.00 0.00 72 1006.8
20260510023338 10 153 9.7 12.9 0.00 0.00 0.00 72 1006.9
20260510022836 10 182 8.0 11.3 0.00 0.00 0.00 72 1006.8
20260510022335 10 165 8.0 9.7 0.00 0.00 0.00 71 1007.0
20260510021834 10 159 6.4 8.0 0.00 0.00 0.00 71 1006.9
20260510021333 10 144 9.7 12.9 0.00 0.00 0.00 70 1007.1
20260510020828 10 169 8.0 11.3 0.00 0.00 0.00 71 1007.1
20260510020323 10 177 11.3 12.9 0.00 0.00 0.00 71 1007.1
20260510015819 10 203 9.7 11.3 0.00 0.00 0.00 70 1006.8
20260510015315 10 126 12.9 16.1 0.00 0.00 0.00 70 1006.7
20260510014810 10 179 11.3 17.7 0.00 0.00 0.00 70 1007.0
20260510014307 11 139 9.7 12.9 0.00 0.00 0.00 70 1007.1
20260510013803 11 195 9.7 14.5 0.00 0.00 0.00 69 1006.8
20260510013259 11 152 9.7 11.3 0.00 0.00 0.00 69 1007.0
20260510012754 11 146 12.9 16.1 0.00 0.00 0.00 69 1007.1
20260510012249 11 157 12.9 14.5 0.00 0.00 0.00 69 1007.1
20260510011749 11 135 9.7 12.9 0.00 0.00 0.00 68 1007.4
20260510011245 11 195 12.9 17.7 0.00 0.00 0.00 68 1006.9
20260510010742 11 140 9.7 12.9 0.00 0.00 0.00 68 1007.1
20260510010238 11 173 9.7 14.5 0.00 0.00 0.00 68 1007.2
20260510005736 11 190 9.7 12.9 0.00 0.00 0.00 68 1007.2
20260510005232 11 197 8.0 9.7 0.00 0.00 0.00 67 1007.2
20260510004730 11 184 17.7 22.5 0.00 0.00 0.00 67 1007.0
20260510004228 11 144 24.1 25.7 0.00 0.00 0.00 67 1007.0
20260510003725 11 166 20.9 27.4 0.00 0.00 0.00 66 1007.1
20260510003221 11 233 11.3 14.5 0.00 0.00 0.00 66 1007.0
20260510002720 11 144 6.4 9.7 0.00 0.00 0.00 66 1007.3
20260510002217 11 125 16.1 22.5 0.00 0.00 0.00 65 1007.3
20260510001714 11 157 11.3 22.5 0.00 0.00 0.00 65 1007.3
20260510001213 11 179 12.9 22.5 0.00 0.00 0.00 64 1007.3
20260510000708 12 148 19.3 25.7 0.00 0.00 0.00 63 1007.2
20260510000205 12 116 17.7 33.8 0.00 0.00 0.00 63 1007.2
20260509235702 12 183 11.3 12.9 0.00 0.00 0.00 62 1007.2
20260509235158 12 189 16.1 17.7 0.00 0.00 0.00 61 1007.3
20260509234654 12 187 14.5 16.1 0.00 0.00 0.00 61 1007.1
20260509234152 12 161 4.8 11.3 0.00 0.00 0.00 60 1007.2
20260509233650 12 164 9.7 12.9 0.00 0.00 0.00 60 1007.4
20260509233147 12 208 9.7 12.9 0.00 0.00 0.00 59 1007.0
20260509232643 12 178 12.9 22.5 0.00 0.00 0.00 58 1007.1
20260509232140 13 198 11.3 14.5 0.00 0.00 0.00 58 1007.0
20260509231637 13 152 12.9 20.9 0.00 0.00 0.00 57 1007.2
20260509231134 13 182 17.7 20.9 0.00 0.00 0.00 56 1007.4
20260509230631 13 192 12.9 16.1 0.00 0.00 0.00 55 1007.3
20260509230128 14 266 14.5 22.5 0.00 0.00 0.00 54 1007.5
20260509225624 14 155 17.7 25.7 0.00 0.00 0.00 54 1007.3
20260509225119 14 220 14.5 25.7 0.00 0.00 0.00 53 1007.3
20260509224614 14 198 20.9 35.4 0.00 0.00 0.00 53 1007.4